Tracking 25711 objects as of 22-May-2022
HD Live streaming from Space Station
objects crossing your sky now

PSLV R/B

Track PSLV R/B now!
10-day predictions


NORAD ID: 37842
Int'l Code: 2011-058E
Perigee: 785.5 km
Apogee: 871.6 km
Inclination: 19.8 °
Period: 101.3 minutes
Semi major axis: 7199 km
RCS: 0.1259 m2 (medium)
Launch date: October 12, 2011
Source: India (IND)
Launch site: SRIHARIKOTA (SRI)

Note: This is a ROCKET BODY
aabbcc
Your satellite tracking list
Your tracking list is empty




NASA's NSSDC Master Catalog

Two Line Element Set (TLE):
1 37842U 11058E   22141.85181217  .00000430  00000-0  68495-4 0  9995
2 37842  19.7947 336.9876 0059777 240.7661 118.6753 14.21176694551661
Source of the keplerian elements: AFSPC